Tracking 28514 objects as of 23-Feb-2024
HD Live streaming from Space Station
objects crossing your sky now

KAITUO 1A

Track KAITUO 1A now!
10-day predictions
KAITUO 1A is classified as:


NORAD ID: 40904
Int'l Code: 2015-049F
Perigee: 453.4 km
Apogee: 465.9 km
Inclination: 97.5 °
Period: 93.6 minutes
Semi major axis: 6830 km
RCS: Unknown
Launch date: September 19, 2015
Source: People's Republic of China (PRC)
Launch site: Taiyaun Space Center, China (TSC)
Your satellite tracking list
Your tracking list is empty




NASA's NSSDC Master Catalog

Two Line Element Set (TLE):
1 40904U 15049F   24054.59263301  .00027956  00000-0  75125-3 0  9992
2 40904  97.4935  68.2280 0009192  21.6158 338.5472 15.37837015466789
Source of the keplerian elements: AFSPC